sat.trackr.live / text

‹ back to catalog

STARLINK-33802

NORAD 64392 · 2025-127Y

PAYLOAD ACTIVE UNKNOWN

§ Identity

Operator
Country
US
Launch date
2025-06-13
Launch site
AFETR
Launch vehicle
Mass (kg)
RCS (m²)

Purposes: comms

External: N2YO · Heavens-Above · Gunter

§ Orbital elements

Epoch: 2026-09-20T02:04:14.106432Z

Period
94.27 min
Inclination
42.9985°
Eccentricity
0.0001302
Mean motion
15.27596322 rev/d
Perigee alt
482.1 km
Apogee alt
483.9 km
Semi-major
6,861.1 km
B*
9.5512e-4
RAAN
162.2648°
Arg perigee
268.9890°
Mean anomaly
91.0812°
Rev number
7,224

§ Raw data

STARLINK-338021 64392U 25127Y   26263.08627438  .00026127  00000+0  95512-3 0  99902 64392  42.9985 162.2648 0001302 268.9890  91.0812 15.27596322 72248

JSON: /api/v1/satellites/64392 · /tle

For live sub-satellite position, see the globe view (requires WebGL).

§ Visibility from observer

Set your observer location to see the next 7 days of passes ≥ 10°. The values pass through the URL so the page stays shareable.

No JS? Fill the form by hand. The geolocation button needs JavaScript.